Regional Weather Roundup
Issued by NWS

Home | Current Version | Previous Version | Graphics & Text | Print | Product List | Glossary On
Versions: 1 2 3 4 5 6 7 8 9 10 11 12 13 14 15 16 17 18 19 20 21 22 23 24 25 26 27 28 29 30 31 32 33 34 35 36 37 38 39 40 41 42 43 44 45 46 47 48 49 50
000
ASUS43 KMKX 302110
RWRWI

WISCONSIN REGIONAL WEATHER ROUNDUP
NATIONAL WEATHER SERVICE MILWAUKEE/SULLIVAN WI
400 PM CDT MON MAR 30 2015

NOTE: "FAIR" INDICATES FEW OR NO CLOUDS BELOW 12,000 FEET WITH NO
SIGNIFICANT WEATHER AND/OR OBSTRUCTIONS TO VISIBILITY.

WIZ001-002-006>008-014>016-023>028-302200-
NORTHWEST WISCONSIN

CITY           SKY/WX    TMP DP  RH WIND       PRES   REMARKS
SUPERIOR ARPT  CLOUDY    48  33  55 SW10      29.83R
ASHLAND        PTSUNNY   53  23  31 VRB5      29.83F
HAYWARD        LGT RAIN  43  33  68 S9        29.84F
SIREN          CLOUDY    46  37  72 S6        29.85S
CUMBERLAND     LGT RAIN  43  36  75 SE7       29.84F
RICE LAKE      CLOUDY    45  38  76 SE7       29.86F
CHETEK         CLOUDY    45  40  83 E6        29.85F
LADYSMITH      CLOUDY    48  33  54 S7        29.87F
EAU CLAIRE     PTSUNNY   47  39  74 SE8       29.86F
MENOMONIE      PTSUNNY   50  39  66 SE10      29.86F
NEW RICHMOND   PTSUNNY   51  36  56 SE7       29.84F
OSCEOLA        PTSUNNY   50  38  62 E9        29.87F
$$

WIZ003>005-009-010-017-018-302200-
NORTH CENTRAL WISCONSIN

CITY           SKY/WX    TMP DP  RH WIND       PRES   REMARKS
MANITOWISH WTR CLOUDY    49  23  36 W8        29.83F
ARBOR VITAE    CLOUDY    51  22  31 NW6       29.83F
WOODRUFF       CLOUDY    51  22  31 NW6       29.83F
RHINELANDER    CLOUDY    50  18  28 MISG      29.85F
EAGLE RIVER    CLOUDY    48  17  29 N6        29.84F
LAND O LAKES   CLOUDY    47  16  28 NW3       29.85F
PHILLIPS       CLOUDY    47  26  44 S6        29.83F
TOMAHAWK       CLOUDY    50  20  30 CALM      29.84F
MEDFORD        DRIZZLE   43  34  69 SW7       29.86F
MERRILL        CLOUDY    49  25  39 CALM      29.86F
$$

WIZ029-030-035-036-043>047-302200-
CENTRAL WISCONSIN

CITY           SKY/WX    TMP DP  RH WIND       PRES   REMARKS
WAUSAU         CLOUDY    49  28  44 SW13      29.85F
MOSINEE        PTSUNNY   46  32  57 SW13      29.89F
MARSHFIELD     LGT RAIN  44  38  79 SW5       29.89F
STEVENS POINT  RAIN      46  33  61 SW10      29.90F
WAUPACA        CLOUDY    52  31  44 SW12      29.91F
WAUTOMA        CLOUDY    50  37  60 NW8       29.92F
WISC RAPIDS    LGT RAIN  46  37  71 W5        29.93F
CAMP DOUGLAS   CLOUDY    50  45  81 NE6       29.89F
$$

WIZ011>013-019>022-031-037>040-048>050-302200-
NORTHEAST WISCONSIN

CITY           SKY/WX    TMP DP  RH WIND       PRES   REMARKS
ANTIGO         CLOUDY    48  24  38 W9        29.85F
SHAWANO        CLOUDY    55  22  27 W8G17     29.87F
OCONTO         PTSUNNY   54  21  28 W6        29.87F
STURGEON BAY   MOSUNNY   43  28  56 SE12G18   29.92F
GREEN BAY      CLOUDY    55  29  36 W10G22    29.89F
MANITOWOC      CLOUDY    55  26  32 W8          N/A
APPLETON       CLOUDY    54  25  32 SW14      29.90F
CLINTONVILLE   CLOUDY    54  21  28 W9        29.88F
OSHKOSH        CLOUDY    52  31  44 SW7G22    29.91F
$$

WIZ032>034-041-042-053>061-302200-
SOUTHWEST WISCONSIN

CITY           SKY/WX    TMP DP  RH WIND       PRES   REMARKS
LA CROSSE      CLOUDY    58  31  35 VRB6      29.88F
SPARTA         CLOUDY    52  32  45 E5        29.90F
VIROQUA        PTSUNNY   56  29  34 CALM      29.88F
BOSCOBEL       CLOUDY    64  30  27 VRB6      29.87F
PRAIRIE DU CHI CLOUDY    62  28  26 CALM      29.86F
PLATTEVILLE    CLOUDY    60  34  37 NE9       29.88F
$$

WIZ056-057-062-063-064-067-068-302200-
SOUTH CENTRAL WISCONSIN

CITY           SKY/WX    TMP DP  RH WIND       PRES   REMARKS
REEDSBURG      CLOUDY    51  34  51 NE8       29.90F
BARABOO/DELLS  CLOUDY    50  34  53 NE6       29.91F
LONE ROCK      CLOUDY    60  28  29 VRB3      29.89F
MINERAL POINT  CLOUDY    57  28  33 NE5       29.89F
MADISON        CLOUDY    56  31  38 VRB6      29.92F
MIDDLETON      CLOUDY    57  29  33 N3        29.92F
WATERTOWN      CLOUDY    51  37  57 W7        29.93F
MONROE         CLOUDY    57  32  38 N9        29.92F
JANESVILLE     CLOUDY    57  27  30 N9        29.93F
$$

WIZ051-052-058>065-066-070>072-302200-
SOUTHEAST WISCONSIN

CITY           SKY/WX    TMP DP  RH WIND       PRES   REMARKS
MILWAUKEE      CLOUDY    56  29  35 W15G23    29.94F
WAUKESHA       CLOUDY    52  32  46 W12G23    29.95F
MILWAUKEE/TIMM MOSUNNY   55  28  35 W15G23    29.94F
RACINE         CLOUDY    58  29  33 NW13G20   29.95F
BURLINGTON     CLOUDY    53  33  47 NW9       29.94F
KENOSHA        LGT RAIN  54  36  50 NW18G26   29.95S
FOND DU LAC    LGT RAIN  53  31  42 W10       29.91F
SHEBOYGAN      CLOUDY    54  28  36 NW12      29.90F
WEST BEND      CLOUDY    52  28  40 W9        29.92F
JUNEAU         DRIZZLE   49  37  61 NW3       29.94F
$$

LSZ147-162-302200-
LAKE SUPERIOR

STATION/POSITION TIME  TEMP    WIND        PRES    WAVE
                       AIR SEA DIR/SP/G            HT/PER
                 (UTC) (F)     (DEG/KT/KT) (MB)    (FT/S)
DEVILS ISLAND    2100   41     110/  7/  9 1011.1F
PORT WING        2000   48      40/  4/  4 1010.8F
SAXON HARBOR     2040   42      60/  3/  5 1010.5F
$$

LMZ867-665-643>646-302200-
LAKE MICHIGAN

STATION/POSITION TIME  TEMP    WIND        PRES    WAVE
                       AIR SEA DIR/SP/G            HT/PER
                 (UTC) (F)     (DEG/KT/KT) (MB)    (FT/S)
NORTHPORT PIER   2000   38     140/  9/ 10 1012.9F
SISTER BAY       2047   47     160/ 12/ 17   N/A
KEWAUNEE LAKESHO 2000   53     320/  8/ 15 1012.0F
SHEBOYGAN LAKESH 2100   54     290/  8/ 11 1013.2F
PORT WASHINGTON  2040   57     290/  9/ 15 1013.9F
MILWAUKEE LAKESH 2000   56     280/ 11/ 15   N/A
KENOSHA   LAKESH 2100   54     290/ 15/ 22 1013.9S
$$

TC  - TEMPERATURE IN CELSIUS
VSB - VISIBILITY IN STATUTE MILES
WCI - WIND CHILL INDEX
HX  - HEAT INDEX




USA.gov is the U.S. government's official web portal to all federal, state and local government web resources and services.